| time (UTC) | temp C | wind direction | speed KPH | gust KPH | rain 1hr cm | rain 24hr cm | rain mn cm | humidity % | barometer mb |
| 20260510201508 | 15 | 76 | 0.0 | 1.6 | 0.05 | 0.05 | 0.05 | 85 | 1007.3 |
| 20260510200007 | 15 | 76 | 0.0 | 0.0 | 0.05 | 0.05 | 0.05 | 81 | 1007.0 |
| 20260510194511 | 15 | 76 | 0.0 | 0.0 | 0.03 | 0.03 | 0.03 | 80 | 1007.0 |
| 20260510193005 | 16 | 76 | 0.0 | 1.6 | 0.03 | 0.03 | 0.03 | 77 | 1006.9 |
| 20260510191505 | 16 | 76 | 0.0 | 0.0 | 0.00 | 0.00 | 0.00 | 72 | 1007.0 |
| 20260510190004 | 16 | 76 | 0.0 | 3.2 | 0.00 | 0.00 | 0.00 | 68 | 1006.8 |
| 20260510184504 | 16 | 76 | 0.0 | 6.4 | 0.00 | 0.00 | 0.00 | 67 | 1006.3 |
| 20260510183003 | 17 | 79 | 0.0 | 6.4 | 0.00 | 0.00 | 0.00 | 62 | 1006.0 |
| 20260510181502 | 18 | 92 | 0.0 | 8.0 | 0.00 | 0.00 | 0.00 | 55 | 1005.9 |
| 20260510180004 | 20 | 76 | 1.6 | 9.7 | 0.00 | 0.00 | 0.00 | 52 | 1005.6 |
| 20260510174503 | 20 | 304 | 1.6 | 6.4 | 0.00 | 0.00 | 0.00 | 48 | 1005.5 |
| 20260510173001 | 21 | 82 | 0.0 | 0.0 | 0.00 | 0.00 | 0.00 | 51 | 1005.0 |
| 20260510171612 | 21 | 82 | 0.0 | 3.2 | 0.00 | 0.00 | 0.00 | 51 | 1004.9 |
| 20260510170100 | 21 | 82 | 0.0 | 3.2 | 0.00 | 0.00 | 0.00 | 50 | 1004.8 |
| 20260510164611 | 21 | 37 | 1.6 | 4.8 | 0.00 | 0.00 | 0.00 | 48 | 1004.9 |
| 20260510163143 | 21 | 82 | 0.0 | 6.4 | 0.00 | 0.00 | 0.00 | 49 | 1005.0 |
| 20260510161555 | 22 | 94 | 0.0 | 8.0 | 0.00 | 0.00 | 0.00 | 49 | 1005.2 |
| 20260510160059 | 22 | 101 | 0.0 | 6.4 | 0.00 | 0.00 | 0.00 | 48 | 1005.4 |
| 20260510154554 | 22 | 92 | 0.0 | 4.8 | 0.00 | 0.00 | 0.00 | 48 | 1005.6 |
| 20260510153101 | 22 | 90 | 0.0 | 4.8 | 0.00 | 0.00 | 0.00 | 50 | 1005.9 |
| 20260510151600 | 22 | 83 | 0.0 | 4.8 | 0.00 | 0.00 | 0.00 | 48 | 1006.2 |
| 20260510150053 | 22 | 70 | 1.6 | 4.8 | 0.00 | 0.00 | 0.00 | 49 | 1006.4 |
| 20260510144549 | 22 | 95 | 0.0 | 3.2 | 0.00 | 0.00 | 0.00 | 50 | 1006.4 |
| 20260510143057 | 22 | 86 | 0.0 | 3.2 | 0.00 | 0.00 | 0.00 | 48 | 1006.7 |
| 20260510141542 | 22 | 52 | 0.0 | 6.4 | 0.00 | 0.00 | 0.00 | 51 | 1006.7 |
| 20260510140041 | 22 | 82 | 0.0 | 4.8 | 0.00 | 0.00 | 0.00 | 49 | 1006.8 |
| 20260510134542 | 22 | 96 | 0.0 | 9.7 | 0.00 | 0.00 | 0.00 | 49 | 1007.0 |
| 20260510133039 | 22 | 96 | 1.6 | 8.0 | 0.00 | 0.00 | 0.00 | 50 | 1007.1 |
| 20260510131537 | 22 | 90 | 1.6 | 4.8 | 0.00 | 0.00 | 0.00 | 50 | 1007.2 |
| 20260510130036 | 23 | 57 | 1.6 | 6.4 | 0.00 | 0.00 | 0.00 | 49 | 1007.4 |
| 20260510124535 | 23 | 74 | 1.6 | 8.0 | 0.00 | 0.00 | 0.00 | 48 | 1007.5 |
| 20260510123032 | 23 | 72 | 1.6 | 8.0 | 0.00 | 0.00 | 0.00 | 48 | 1007.7 |
| 20260510121531 | 23 | 88 | 1.6 | 8.0 | 0.00 | 0.00 | 0.00 | 46 | 1007.9 |
| 20260510120031 | 23 | 103 | 1.6 | 6.4 | 0.00 | 0.00 | 0.00 | 46 | 1008.0 |
| 20260510114529 | 22 | 76 | 1.6 | 11.3 | 0.00 | 0.00 | 0.00 | 48 | 1008.1 |
| 20260510113026 | 22 | 96 | 1.6 | 6.4 | 0.00 | 0.00 | 0.00 | 47 | 1008.5 |
| 20260510111524 | 22 | 65 | 1.6 | 11.3 | 0.00 | 0.00 | 0.00 | 47 | 1008.6 |
| 20260510110027 | 23 | 30 | 1.6 | 6.4 | 0.00 | 0.00 | 0.00 | 46 | 1008.6 |
| 20260510104521 | 22 | 78 | 1.6 | 8.0 | 0.00 | 0.00 | 0.00 | 47 | 1008.8 |
| 20260510103025 | 22 | 81 | 3.2 | 11.3 | 0.00 | 0.00 | 0.00 | 45 | 1009.0 |
| 20260510101517 | 22 | 97 | 4.8 | 11.3 | 0.00 | 0.00 | 0.00 | 45 | 1009.2 |
| 20260510100028 | 22 | 44 | 0.0 | 12.9 | 0.00 | 0.00 | 0.00 | 46 | 1009.3 |
| 20260510094515 | 21 | 55 | 0.0 | 6.4 | 0.00 | 0.00 | 0.00 | 50 | 1009.4 |
| 20260510093009 | 21 | 43 | 1.6 | 8.0 | 0.00 | 0.00 | 0.00 | 51 | 1009.6 |
| 20260510091505 | 21 | 97 | 1.6 | 8.0 | 0.00 | 0.00 | 0.00 | 57 | 1009.8 |
| 20260510090005 | 20 | 76 | 0.0 | 4.8 | 0.00 | 0.00 | 0.00 | 58 | 1009.9 |
| 20260510084501 | 20 | 91 | 0.0 | 0.0 | 0.00 | 0.00 | 0.00 | 57 | 1010.1 |
| 20260510083058 | 19 | 94 | 0.0 | 0.0 | 0.00 | 0.00 | 0.00 | 60 | 1010.2 |
| 20260510081557 | 18 | 101 | 0.0 | 0.0 | 0.00 | 0.00 | 0.00 | 62 | 1010.2 |
| 20260510080051 | 18 | 97 | 0.0 | 0.0 | 0.00 | 0.00 | 0.00 | 61 | 1010.3 |
| 20260510074548 | 17 | 92 | 0.0 | 0.0 | 0.00 | 0.00 | 0.00 | 64 | 1010.4 |
| 20260510073046 | 17 | 105 | 0.0 | 0.0 | 0.00 | 0.00 | 0.00 | 64 | 1010.7 |
| 20260510071546 | 17 | 86 | 0.0 | 0.0 | 0.00 | 0.00 | 0.00 | 65 | 1010.7 |
| 20260510070046 | 16 | 74 | 0.0 | 0.0 | 0.00 | 0.00 | 0.00 | 68 | 1010.8 |
| 20260510064538 | 16 | 88 | 0.0 | 0.0 | 0.00 | 0.00 | 0.00 | 67 | 1010.9 |
| 20260510063035 | 15 | 62 | 0.0 | 0.0 | 0.00 | 0.00 | 0.00 | 69 | 1010.9 |
| 20260510061532 | 15 | 80 | 0.0 | 0.0 | 0.00 | 0.00 | 0.00 | 68 | 1011.1 |
| 20260510060029 | 15 | 146 | 0.0 | 0.0 | 0.00 | 0.00 | 0.00 | 70 | 1011.1 |
| 20260510054526 | 13 | 79 | 0.0 | 0.0 | 0.00 | 0.00 | 0.00 | 72 | 1011.1 |
| 20260510053026 | 13 | 88 | 0.0 | 0.0 | 0.00 | 0.00 | 0.00 | 73 | 1011.2 |
| 20260510051524 | 12 | 94 | 0.0 | 0.0 | 0.00 | 0.00 | 0.00 | 74 | 1011.2 |
| 20260510050022 | 12 | 142 | 0.0 | 0.0 | 0.00 | 0.00 | 0.00 | 75 | 1011.4 |
| 20260510044530 | 12 | 86 | 0.0 | 0.0 | 0.00 | 0.00 | 0.00 | 75 | 1011.4 |
| 20260510043022 | 12 | 96 | 0.0 | 0.0 | 0.00 | 0.00 | 0.00 | 75 | 1011.5 |
| 20260510041520 | 11 | 90 | 0.0 | 0.0 | 0.00 | 0.00 | 0.00 | 76 | 1011.4 |
| 20260510040019 | 11 | 90 | 0.0 | 0.0 | 0.00 | 0.00 | 0.00 | 75 | 1011.6 |
| 20260510034519 | 11 | 90 | 0.0 | 0.0 | 0.00 | 0.00 | 0.00 | 77 | 1011.5 |
| 20260510033017 | 11 | 90 | 0.0 | 0.0 | 0.00 | 0.00 | 0.00 | 75 | 1011.6 |
| 20260510031516 | 12 | 90 | 0.0 | 0.0 | 0.00 | 0.00 | 0.00 | 74 | 1011.6 |
| 20260510030014 | 12 | 91 | 0.0 | 0.0 | 0.00 | 0.00 | 0.00 | 74 | 1011.7 |
| 20260510024638 | 12 | 91 | 0.0 | 0.0 | 0.00 | 0.00 | 0.00 | 74 | 1011.8 |
| 20260510023013 | 12 | 82 | 0.0 | 0.0 | 0.00 | 0.00 | 0.00 | 74 | 1012.0 |
| 20260510021511 | 11 | 83 | 0.0 | 0.0 | 0.00 | 0.00 | 0.00 | 75 | 1012.0 |
| 20260510020009 | 12 | 83 | 0.0 | 0.0 | 0.00 | 0.00 | 0.00 | 74 | 1012.1 |
| 20260510014508 | 12 | 83 | 0.0 | 0.0 | 0.00 | 0.00 | 0.00 | 73 | 1012.3 |
| 20260510013007 | 12 | 83 | 0.0 | 0.0 | 0.00 | 0.00 | 0.00 | 72 | 1012.3 |
| 20260510011504 | 12 | 82 | 0.0 | 0.0 | 0.00 | 0.00 | 0.00 | 72 | 1012.4 |
| 20260510010002 | 12 | 81 | 0.0 | 0.0 | 0.00 | 0.00 | 0.00 | 72 | 1012.5 |
| 20260510004601 | 12 | 19 | 0.0 | 0.0 | 0.00 | 0.00 | 0.00 | 72 | 1012.7 |
| 20260510003059 | 12 | 19 | 0.0 | 0.0 | 0.00 | 0.00 | 0.00 | 72 | 1012.9 |
| 20260510001557 | 13 | 19 | 0.0 | 0.0 | 0.00 | 0.00 | 0.00 | 71 | 1013.0 |
| 20260510000106 | 13 | 19 | 0.0 | 0.0 | 0.00 | 0.00 | 0.00 | 70 | 1013.2 |
| 20260509234601 | 13 | 19 | 0.0 | 0.0 | 0.00 | 0.00 | 0.00 | 70 | 1013.2 |
| 20260509233054 | 13 | 19 | 0.0 | 0.0 | 0.00 | 0.00 | 0.00 | 70 | 1013.3 |
| 20260509231554 | 13 | 19 | 0.0 | 0.0 | 0.00 | 0.00 | 0.00 | 70 | 1013.4 |
| 20260509230052 | 13 | 19 | 0.0 | 0.0 | 0.00 | 0.00 | 0.00 | 69 | 1013.5 |
| 20260509224552 | 13 | 19 | 0.0 | 0.0 | 0.00 | 0.00 | 0.00 | 70 | 1013.5 |
| 20260509223059 | 13 | 19 | 0.0 | 0.0 | 0.00 | 0.00 | 0.00 | 72 | 1013.6 |
| 20260509221549 | 12 | 19 | 0.0 | 0.0 | 0.00 | 0.00 | 0.00 | 75 | 1013.5 |
| 20260509220046 | 13 | 19 | 0.0 | 0.0 | 0.00 | 0.00 | 0.00 | 75 | 1013.5 |
| 20260509214545 | 13 | 19 | 0.0 | 0.0 | 0.00 | 0.00 | 0.00 | 75 | 1013.5 |
| 20260509213045 | 13 | 19 | 0.0 | 0.0 | 0.00 | 0.00 | 0.00 | 74 | 1013.5 |
| 20260509211545 | 14 | 19 | 0.0 | 0.0 | 0.00 | 0.00 | 0.00 | 72 | 1013.5 |
| 20260509210049 | 15 | 19 | 0.0 | 0.0 | 0.00 | 0.00 | 0.00 | 71 | 1013.7 |
| 20260509204550 | 15 | 19 | 0.0 | 0.0 | 0.00 | 0.00 | 0.00 | 69 | 1013.7 |
| 20260509203044 | 15 | 19 | 0.0 | 0.0 | 0.00 | 0.00 | 0.00 | 68 | 1013.8 |
| 20260509201546 | 16 | 19 | 0.0 | 0.0 | 0.00 | 0.00 | 0.00 | 67 | 1013.8 |